This demonstration page uses our WeatherBlox Daily Observations layout. Learn more.

Left ArrowRight Arrow

39.29038, -76.61219

Hourly Observations for May 26, 2021

Temp ( °F °C ) Dew Point ( °F °C ) Humidity (%) Winds ( mph kmh ) Pressure ( in mb ) Visibility ( mi km ) Precip ( " mm )
12:54 am 00:54 Mostly Cloudy 66 18.9 62 16.7 87 87 N N/A 30.13 1020 10 16 N/A
1:54 am 01:54 Mostly Cloudy 65 18.3 62 16.7 90 90 N N/A 30.12 1020 10 16 N/A
2:54 am 02:54 Mostly Cloudy 65 18.3 62 16.7 90 90 N N/A 30.10 1019 9 14 N/A
3:54 am 03:54 Cloudy 66 18.9 63 17.2 90 90 SE 3 6 30.09 1019 9 14 0.00 0.00
4:34 am 04:34 Cloudy 66 18.9 63 17.2 90 90 N N/A 30.09 1019 8 13 0.01 0.25
4:54 am 04:54 Cloudy 66 18.9 63 17.2 90 90 N N/A 30.09 1019 8 13 0.01 0.25
5:18 am 05:18 Cloudy 66 18.9 64 17.8 93 93 N N/A 30.09 1019 7 11 N/A
5:54 am 05:54 Cloudy with Mist and Fog 67 19.4 64 17.8 91 91 N N/A 30.08 1019 6 10 N/A
6:54 am 06:54 Mostly Cloudy with Mist and Fog 68 20 64 17.8 87 87 N N/A 30.08 1019 6 10 N/A
7:54 am 07:54 Mostly Cloudy with Mist and Fog 69 20.6 66 18.9 90 90 N N/A 30.08 1019 6 10 N/A
8:54 am 08:54 Mostly Cloudy with Haze 72 22.2 67 19.4 84 84 N N/A 30.08 1019 6 10 N/A
9:54 am 09:54 Mostly Cloudy 76 24.4 68 20 77 77 SW 3 6 30.07 1018 10 16 N/A
10:54 am 10:54 Partly Cloudy 81 27.2 69 20.6 67 67 SSW 5 7 30.05 1018 10 16 N/A
11:54 am 11:54 Partly Cloudy 85 29.4 70 21.1 61 61 N N/A 30.03 1017 10 16 N/A
12:54 pm 12:54 Mostly Sunny 88 31.1 70 21.1 55 55 S 6 9 30.01 1016 10 16 N/A
1:54 pm 13:54 Mostly Sunny 91 32.8 69 20.6 49 49 SSW 3 6 29.98 1015 10 16 N/A
2:54 pm 14:54 Partly Cloudy 93 33.9 67 19.4 42 42 S 9 15 29.93 1014 10 16 N/A
3:54 pm 15:54 Partly Cloudy 92 33.3 69 20.6 47 47 S 8 13 29.89 1012 10 16 N/A
4:54 pm 16:54 Mostly Cloudy 89 31.7 69 20.6 52 52 SE 8 13 29.88 1012 10 16 N/A
5:23 pm 17:23 Mostly Cloudy with Thunderstorms 88 31.1 69 20.6 54 54 SE 6 9 29.88 1012 10 16 N/A
5:46 pm 17:46 Windy with Storms Likely 79 26.1 69 20.6 72 72 WNW 23 37 29.90 1013 2 2 0.03 0.76
5:47 pm 17:47 Mostly Cloudy with Thunderstorms 78 25.6 69 20.6 74 74 W 21 33 29.91 1013 3 4 0.06 1.52
5:49 pm 17:49 Mostly Cloudy with Strong Thunderstorms 75 24 66 19 74 74 W 22 35 29.91 1013 2 2 0.14 3.56
5:54 pm 17:54 Cloudy with Strong Thunderstorms 74 23.3 65 18.3 74 74 W 24 39 29.93 1013 2 2 0.20 5.08
5:58 pm 17:58 Mostly Cloudy with Strong Thunderstorms 71 21.7 65 18.3 81 81 WSW 23 37 29.95 1014 1 1 0.02 0.51
6:07 pm 18:07 Mostly Cloudy with Thunderstorms 73 22.8 64 17.8 74 74 E 6 9 29.89 1012 2 3 0.42 10.67
6:11 pm 18:11 Mostly Cloudy with Thunderstorms 75 23.9 66 18.9 74 74 VRB 3 6 29.89 1012 2 3 0.42 10.67
6:13 pm 18:13 Mostly Cloudy with Thunderstorms 76 24.4 66 18.9 72 72 VRB 3 6 29.89 1012 6 10 0.42 10.67
6:30 pm 18:30 Mostly Cloudy with Thunderstorms 76 24.4 67 19.4 74 74 SSE 3 6 29.90 1013 10 16 0.42 10.67
6:45 pm 18:45 Mostly Cloudy 75 23.9 68 20 79 79 S 3 6 29.90 1013 10 16 0.42 10.67
6:54 pm 18:54 Mostly Cloudy 75 23.9 69 20.6 82 82 S 5 7 29.91 1013 10 16 0.42 10.67
7:54 pm 19:54 Mostly Cloudy 75 23.9 69 20.6 82 82 N N/A 29.88 1012 10 16 N/A
8:29 pm 20:29 Cloudy with Thunderstorms 73 22.8 71 21.7 94 94 W 16 26 29.91 1013 10 16 N/A
8:49 pm 20:49 Cloudy with Strong Thunderstorms 72 22 70 21 94 94 WNW 18 30 29.92 1013 2 2 N/A
8:54 pm 20:54 Cloudy with Thunderstorms 72 22.2 69 20.6 91 91 NW 15 24 29.93 1013 3 5 N/A
9:54 pm 21:54 Cloudy with Thunderstorms 71 21.7 68 20 90 90 SW 9 15 29.95 1014 10 16 0.00 0.00
10:29 pm 22:29 Cloudy 71 21.7 66 18.9 84 84 SW 9 15 29.94 1014 10 16 N/A
10:54 pm 22:54 Cloudy 70 21.1 66 18.9 87 87 W 6 9 29.94 1014 10 16 N/A
11:54 pm 23:54 Mostly Cloudy 69 20.6 66 18.9 90 90 W 7 11 29.94 1014 10 16 N/A

Powered by AerisWeather